Weather History for Inverness, FL

Change the Weather History Date:

Tuesday, February 19, 2013

  Actual Average (KOCF) Record (KOCF)
Temperature  
Mean Temperature 59 °F -  
Max Temperature 77 °F 71 °F 80 °F (2000)
Min Temperature 41 °F 46 °F 26 °F (2007)
Degree Days  
Heating Degree Days 6    
Growing Degree Days 9 (Base 50)    
Moisture  
Dew Point 49 °F    
Average Humidity 71    
Maximum Humidity 100    
Minimum Humidity 39    
Precipitation  
Precipitation 0.00 in - - ()
Sea Level Pressure  
Sea Level Pressure 30.16 in    
Wind  
Wind Speed 2 mph (SW)    
Max Wind Speed 15 mph    
Max Gust Speed 22 mph    
Visibility 10 miles    
Events      
Averages and records for this station are not official NWS values.
T = Trace of Precipitation, MM = Missing Value Source: NWS Daily Summary

Daily Weather History Graph

Daily Weather History Graph

Search for Another Location

Airport:

Trip Planner

Search our weather history database for the weather conditions in past years. The results will help you decide how hot, cold, wet, or windy it might be!

Date:

Astronomy

Feb. 19, 2013 Rise Set
Actual Time 7:04 AM EST 6:22 PM EST
Civil Twilight 6:40 AM EST 6:46 PM EST
Nautical Twilight 6:12 AM EST 7:14 PM EST
Astronomical Twilight 5:44 AM EST 7:41 PM EST
Moon 1:07 PM EST (2/19) 2:20 AM EST (2/19)
Length of Visible Light 12h 06m
Length of Day
11h 18m
Waxing Gibbous, 67% of the Moon is Illuminated
Feb 19
Waxing Gibbous
Feb 25
Full
Mar 4
Last Quarter
Mar 11
New
Mar 19
First Quarter

Hourly Weather History & Observations

Time (EST) Temp. Dew Point Humidity Pressure Visibility Wind Dir Wind Speed Gust Speed Precip Events Conditions
12:15 AM 46.4 °F 42.8 °F 87% 30.24 in 10.0 mi Calm Calm - N/A   Clear
12:35 AM 46.4 °F 42.8 °F 87% 30.26 in 10.0 mi Calm Calm - N/A   Clear
12:55 AM 44.6 °F 42.8 °F 93% 30.26 in 10.0 mi Calm Calm - N/A   Clear
1:15 AM 44.6 °F 42.8 °F 93% 30.25 in 10.0 mi Calm Calm - N/A   Clear
1:35 AM 42.8 °F 42.8 °F 100% 30.25 in 10.0 mi Calm Calm - N/A   Scattered Clouds
1:55 AM 42.8 °F 41.0 °F 93% 30.24 in 10.0 mi Calm Calm - N/A   Mostly Cloudy
2:15 AM 42.8 °F 41.0 °F 93% 30.23 in 10.0 mi Calm Calm - N/A   Overcast
2:35 AM 42.8 °F 41.0 °F 93% 30.22 in 10.0 mi Calm Calm - N/A   Overcast
2:55 AM 42.8 °F 42.8 °F 100% 30.20 in 10.0 mi Calm Calm - N/A   Mostly Cloudy
3:15 AM 42.8 °F 42.8 °F 100% 30.20 in 10.0 mi Calm Calm - N/A   Scattered Clouds
3:35 AM 42.8 °F 41.0 °F 93% 30.20 in 10.0 mi Calm Calm - N/A   Clear
3:55 AM 42.8 °F 41.0 °F 93% 30.19 in 10.0 mi Calm Calm - N/A   Clear
4:15 AM 42.8 °F 41.0 °F 93% 30.19 in 10.0 mi Calm Calm - N/A   Clear
4:35 AM 42.8 °F 41.0 °F 93% 30.19 in 10.0 mi Calm Calm - N/A   Clear
4:55 AM 42.8 °F 41.0 °F 93% 30.19 in 10.0 mi Calm Calm - N/A   Clear
5:15 AM 41.0 °F 41.0 °F 100% 30.19 in 10.0 mi Calm Calm - N/A   Clear
5:35 AM 41.0 °F 39.2 °F 93% 30.18 in 10.0 mi Calm Calm - N/A   Clear
5:55 AM 41.0 °F 41.0 °F 100% 30.19 in 10.0 mi Calm Calm - N/A   Clear
6:15 AM 41.0 °F 41.0 °F 100% 30.18 in 10.0 mi Calm Calm - N/A   Scattered Clouds
6:55 AM 41.0 °F 41.0 °F 100% 30.19 in 10.0 mi Calm Calm - N/A   Clear
7:15 AM 41.0 °F 41.0 °F 100% 30.19 in 10.0 mi Calm Calm - N/A   Clear
7:35 AM 42.8 °F 41.0 °F 93% 30.19 in 10.0 mi Calm Calm - N/A   Clear
7:55 AM 46.4 °F 44.6 °F 93% 30.20 in 10.0 mi Calm Calm - N/A   Clear
8:15 AM 50.0 °F 46.4 °F 87% 30.20 in 10.0 mi Calm Calm - N/A   Clear
8:35 AM 53.6 °F 48.2 °F 82% 30.20 in 10.0 mi Calm Calm - N/A   Clear
8:55 AM 59.0 °F 50.0 °F 72% 30.20 in 10.0 mi South 4.6 mph - N/A   Clear
9:15 AM 62.6 °F 51.8 °F 68% 30.20 in 10.0 mi South 8.1 mph - N/A   Clear
9:35 AM 66.2 °F 51.8 °F 60% 30.20 in 10.0 mi South 11.5 mph 16.1 mph N/A   Clear
9:55 AM 68.0 °F 51.8 °F 56% 30.19 in 10.0 mi SSE 9.2 mph - N/A   Clear
10:15 AM 69.8 °F 51.8 °F 53% 30.19 in 10.0 mi South 12.7 mph 16.1 mph N/A   Clear
10:35 AM 71.6 °F 51.8 °F 50% 30.19 in 10.0 mi South 15.0 mph 21.9 mph N/A   Clear
10:55 AM 73.4 °F 50.0 °F 44% 30.19 in 10.0 mi SSW 10.4 mph 17.3 mph N/A   Clear
11:15 AM 73.4 °F 50.0 °F 44% 30.19 in 10.0 mi SW 9.2 mph 20.7 mph N/A   Clear
11:35 AM 73.4 °F 50.0 °F 44% 30.19 in 10.0 mi WSW 8.1 mph 21.9 mph N/A   Clear
11:55 AM 77.0 °F 50.0 °F 39% 30.18 in 7.0 mi SSW 9.2 mph 16.1 mph N/A   Clear
12:15 PM 75.2 °F 50.0 °F 41% 30.16 in 10.0 mi SSW 5.8 mph 17.3 mph N/A   Scattered Clouds
12:35 PM 77.0 °F 50.0 °F 39% 30.16 in 10.0 mi SSW 6.9 mph - N/A   Mostly Cloudy
12:55 PM 75.2 °F 50.0 °F 41% 30.15 in 10.0 mi WSW 6.9 mph - N/A   Mostly Cloudy
1:15 PM 75.2 °F 50.0 °F 41% 30.14 in 10.0 mi West 4.6 mph - N/A   Mostly Cloudy
1:35 PM 75.2 °F 50.0 °F 41% 30.13 in 10.0 mi WSW 4.6 mph - N/A   Mostly Cloudy
1:55 PM 77.0 °F 50.0 °F 39% 30.12 in 10.0 mi SSW 9.2 mph - N/A   Scattered Clouds
2:15 PM 77.0 °F 50.0 °F 39% 30.11 in 10.0 mi SW 9.2 mph 20.7 mph N/A   Scattered Clouds
2:35 PM 77.0 °F 50.0 °F 39% 30.11 in 10.0 mi SW 6.9 mph 16.1 mph N/A   Clear
2:55 PM 77.0 °F 51.8 °F 41% 30.10 in 10.0 mi SSW 9.2 mph 17.3 mph N/A   Clear
3:15 PM 77.0 °F 51.8 °F 41% 30.10 in 10.0 mi WSW 10.4 mph 20.7 mph N/A   Clear
3:35 PM 77.0 °F 51.8 °F 41% 30.09 in 10.0 mi WSW 11.5 mph 17.3 mph N/A   Clear
3:55 PM 77.0 °F 51.8 °F 41% 30.09 in 10.0 mi SW 8.1 mph 16.1 mph N/A   Clear
4:15 PM 77.0 °F 53.6 °F 44% 30.09 in 10.0 mi SW 6.9 mph - N/A   Clear
4:35 PM 75.2 °F 53.6 °F 47% 30.09 in 10.0 mi SW 3.5 mph 16.1 mph N/A   Clear
4:55 PM 73.4 °F 53.6 °F 50% 30.09 in 10.0 mi SW 9.2 mph 16.1 mph N/A   Clear
5:15 PM 73.4 °F 53.6 °F 50% 30.09 in 10.0 mi SW 4.6 mph - N/A   Clear
5:35 PM 71.6 °F 53.6 °F 53% 30.10 in 10.0 mi SW 6.9 mph - N/A   Clear
5:55 PM 71.6 °F 55.4 °F 57% 30.09 in 10.0 mi WSW 6.9 mph - N/A   Clear
6:15 PM 69.8 °F 55.4 °F 60% 30.10 in 10.0 mi SSW 3.5 mph - N/A   Clear
7:35 PM 68.0 °F 55.4 °F 64% 30.11 in 10.0 mi Calm Calm - N/A   Clear
7:55 PM 66.2 °F 55.4 °F 68% 30.11 in 10.0 mi Calm Calm - N/A   Scattered Clouds
8:15 PM 66.2 °F 55.4 °F 68% 30.11 in 10.0 mi Calm Calm - N/A   Scattered Clouds
8:35 PM 62.6 °F 55.4 °F 77% 30.11 in 10.0 mi Calm Calm - N/A   Clear
8:55 PM 62.6 °F 55.4 °F 77% 30.11 in 10.0 mi Calm Calm - N/A   Clear
9:15 PM 62.6 °F 53.6 °F 72% 30.11 in 10.0 mi Calm Calm - N/A   Clear
9:35 PM 60.8 °F 53.6 °F 77% 30.12 in 10.0 mi Calm Calm - N/A   Clear
9:55 PM 59.0 °F 53.6 °F 82% 30.12 in 10.0 mi Calm Calm - N/A   Mostly Cloudy
10:15 PM 59.0 °F 53.6 °F 82% 30.11 in 10.0 mi Calm Calm - N/A   Scattered Clouds
10:35 PM 59.0 °F 53.6 °F 82% 30.11 in 10.0 mi Calm Calm - N/A   Mostly Cloudy
10:55 PM 59.0 °F 53.6 °F 82% 30.11 in 10.0 mi Calm Calm - N/A   Mostly Cloudy
11:15 PM 57.2 °F 53.6 °F 88% 30.10 in 10.0 mi Calm Calm - N/A   Scattered Clouds
11:35 PM 57.2 °F 53.6 °F 88% 30.10 in 10.0 mi Calm Calm - N/A   Mostly Cloudy
11:55 PM 59.0 °F 55.4 °F 88% 30.12 in 10.0 mi Calm Calm - N/A   Overcast